Laurent Verva

Laurent Verva

Statistiques 2026

  • Courses courues : 42
  • Nb de victoires : -
  • Nb de places : 1
  • Écart gagnant : 143
  • Réussite à la gagne : -
  • Réussite à la place : 2%
Musique : 0a 8a 4a 6a 6a 0a 5a 5a Da 2a 9a 6a 5a Da 6a 0a 7a 4a
DateRangCatégorieAlloc.Dist.HippodromeChevalRed. KmSpé.
24/08/14 8 Trot 12 000€ 2 550m Gournay En Bray Artiste de Mai Attelé
14/09/14 D Trot 13 000€ 2 575m Gournay En Bray Avara de la Besvre Attelé
14/09/14 D Trot 10 000€ 2 550m Gournay En Bray Bonnie du Jaguy Attelé
14/09/14 7 Trot 20 000€ 2 550m Gournay En Bray Ungaro d'Arc Attelé
14/09/14 0 Trot 13 000€ 2 550m Gournay En Bray Artiste de Mai Attelé
14/09/14 D Trot 10 000€ 2 550m Gournay En Bray Barack Syga Attelé
08/08/16 D Trot 11 000€ 2 550m Dieppe Dragonera Attelé
08/08/16 D Trot 11 000€ 2 550m Dieppe Dominis d'Acheux Attelé
08/08/16 5 Trot 32 000€ 2 550m Dieppe Altesse d'Ardennes 1'21"6 Attelé
08/08/16 9 Trot 32 000€ 2 550m Dieppe Anakin 1'21"8 Attelé
19/10/16 8 Trot 23 000€ 2 575m Reims Venus du Rosay 1'15"8 Attelé
15/11/16 0 Trot 32 000€ 2 550m Reims Valerko Sprint Attelé
27/11/16 5 Trot 16 000€ 2 575m Reims Crack des Autels 1'17"5 Attelé
27/11/16 6 Trot 16 000€ 2 550m Reims Cohiba 1'19"1 Attelé
27/11/16 1 Trot 20 000€ 2 550m Reims Buxus Calendes 1'16"0 Attelé
12/03/17 D Trot 16 000€ 2 550m Reims Comete d'Osmoz Attelé
05/06/17 6 Trot 22 000€ 2 550m Reims Beauty Pride 1'16"3 Attelé
05/06/17 6 Trot 32 000€ 2 550m Reims Altesse d'Ardennes 1'15"1 Attelé
01/07/17 2 Trot 16 000€ 2 575m Reims Calie du Lion 1'16"6 Attelé
01/07/17 0 Trot 26 000€ 2 575m Reims Venus du Rosay Attelé
01/07/17 5 Trot 16 000€ 2 550m Reims Cedre de la Vallee 1'16"2 Attelé
07/08/17 D Trot 11 000€ 2 550m Dieppe Epona des Neuzy Attelé
07/08/17 D Trot 11 000€ 2 550m Dieppe Es Tu la Des Fanes Attelé
07/08/17 D Trot 11 000€ 2 550m Dieppe Emival Attelé
07/08/17 0 Trot 13 000€ 2 575m Dieppe Didine de Comtee Attelé
07/08/17 8 Trot 13 000€ 2 575m Dieppe Diamant du Pont 1'22"9 Attelé
07/08/17 4 Trot 32 000€ 2 575m Dieppe Chiquito d'Arc 1'20"5 Attelé
07/08/17 0 Trot 32 000€ 2 550m Dieppe Bergson Attelé
07/08/17 0 Trot 32 000€ 2 550m Dieppe Ariaka Attelé
14/09/17 6 Trot 32 000€ 2 550m Reims Alto de Ligny 1'16"1 Attelé
16/11/17 5 Trot 35 000€ 2 550m Reims Venezia Somolli 1'15"8 Attelé
26/11/17 3 Trot 16 000€ 2 550m Reims Dauphine d'Alci 1'16"2 Attelé
27/05/18 4 Trot 20 000€ 2 550m Reims Dryade des Salines 1'16"2 Attelé
09/06/18 0 Trot 26 000€ 2 575m Reims Valerko Sprint Attelé
09/06/18 1 Trot 16 000€ 2 575m Reims Diego du Houlet 1'15"2 Attelé
20/06/18 8 Trot 22 000€ 2 550m Reims Elliot d'Alci 1'15"3 Attelé
20/06/18 0 Trot 22 000€ 2 550m Reims Dryade des Salines Attelé
06/08/18 D Trot 11 000€ 2 550m Dieppe Filea de la Besvre Attelé
06/08/18 4 Trot 11 000€ 2 550m Dieppe Florette des Neuzy 1'24"7 Attelé
06/08/18 4 Trot 13 000€ 2 575m Dieppe Es Tu la Des Fanes 1'21"9 Attelé
06/08/18 0 Trot 32 000€ 2 550m Dieppe Charly d'Ommeel Attelé
06/08/18 5 Trot 32 000€ 2 550m Dieppe Aristo de Chanjac 1'19"7 Attelé
11/10/18 D Trot 32 000€ 2 550m Reims Aladin Pierji Attelé
11/10/18 4 Trot 24 000€ 2 575m Reims Au Temps Dubonheur 1'14"3 Attelé
25/11/18 3 Trot 15 000€ 2 575m Reims Emile de Jal 1'17"1 Attelé
25/11/18 4 Trot 15 000€ 2 575m Reims Esteve le Fol 1'16"7 Attelé
25/11/18 7 Trot 20 000€ 2 575m Reims Bilingue d'Alci 1'15"4 Attelé
17/03/19 3 Trot 15 000€ 2 550m Reims Etoile Dubonheur 1'16"8 Attelé
28/04/19 6 Trot 13 000€ 2 550m Reims Expert Majyc 1'16"8 Attelé
28/04/19 2 Trot 13 000€ 2 550m Reims Ebba Lotta 1'16"7 Attelé